TimeAST,TemperatureF,Dew PointF,Humidity,Sea Level PressureIn,VisibilityMPH,Wind Direction,Wind SpeedMPH,Gust SpeedMPH,PrecipitationIn,Events,Conditions,WindDirDegrees,DateUTC
12:00 AM,84.2,77.0,79,29.86,6.2,SW,11.5,-,N/A,,Partly Cloudy,220,2012-10-28 04:00:00
1:00 AM,84.2,77.0,79,29.83,6.2,SW,10.4,-,N/A,,Partly Cloudy,230,2012-10-28 05:00:00
2:00 AM,83,77,77,29.82,31,SW,11.5,,,,Scattered Clouds,230,2012-10-28 06:00:00
2:00 AM,84.2,77.0,79,29.80,6.2,SW,11.5,-,N/A,,Partly Cloudy,230,2012-10-28 06:00:00
3:00 AM,84.2,77.0,79,29.80,6.2,SW,10.4,-,N/A,,Partly Cloudy,220,2012-10-28 07:00:00
4:00 AM,82.4,77.0,84,29.80,6.2,SW,11.5,-,N/A,,Partly Cloudy,230,2012-10-28 08:00:00
5:00 AM,83,78,79,29.82,31,SW,13.8,,,,Partly Cloudy,230,2012-10-28 09:00:00
5:00 AM,82.4,77.0,84,29.80,6.2,SW,13.8,-,N/A,,Scattered Clouds,230,2012-10-28 09:00:00
6:00 AM,84.2,78.8,84,29.83,6.2,SW,13.8,-,N/A,,Scattered Clouds,230,2012-10-28 10:00:00
7:00 AM,84.2,77.0,79,29.83,6.2,SW,12.7,-,N/A,,Scattered Clouds,220,2012-10-28 11:00:00
8:00 AM,85,78,74,29.86,40,SW,13.8,,,,Scattered Clouds,220,2012-10-28 12:00:00
8:00 AM,84.2,78.8,84,29.86,6.2,SW,13.8,-,N/A,,Partly Cloudy,220,2012-10-28 12:00:00
9:00 AM,84.2,77.0,79,29.86,6.2,SW,16.1,-,N/A,,Scattered Clouds,220,2012-10-28 13:00:00
10:00 AM,86.0,77.0,74,29.86,6.2,SW,12.7,-,N/A,,Partly Cloudy,230,2012-10-28 14:00:00
11:00 AM,86,76,67,29.86,34,SSW,13.8,,,,Scattered Clouds,210,2012-10-28 15:00:00
11:00 AM,86.0,77.0,74,29.86,6.2,SSW,13.8,-,N/A,,Partly Cloudy,210,2012-10-28 15:00:00
12:00 PM,86.0,77.0,74,29.83,6.2,SW,13.8,-,N/A,,Partly Cloudy,230,2012-10-28 16:00:00
1:00 PM,86.0,77.0,74,29.80,6.2,SW,16.1,-,N/A,,Partly Cloudy,230,2012-10-28 17:00:00
2:00 PM,86,76,67,29.81,40,WSW,11.5,,,,,240,2012-10-28 18:00:00
2:00 PM,86.0,77.0,74,29.80,6.2,WSW,11.5,-,N/A,,Partly Cloudy,240,2012-10-28 18:00:00
3:00 PM,86.0,77.0,74,29.80,6.2,SW,12.7,-,N/A,,Partly Cloudy,230,2012-10-28 19:00:00
4:00 PM,86.0,77.0,74,29.80,6.2,WSW,13.8,-,N/A,,Partly Cloudy,240,2012-10-28 20:00:00
5:00 PM,85,77,72,29.82,31,WSW,12.7,,,,Partly Cloudy,250,2012-10-28 21:00:00
5:00 PM,86.0,77.0,74,29.80,6.2,WSW,12.7,-,N/A,,Scattered Clouds,240,2012-10-28 21:00:00
6:00 PM,84.2,77.0,79,29.83,6.2,WSW,10.4,-,N/A,,Scattered Clouds,250,2012-10-28 22:00:00
7:00 PM,84.2,77.0,79,29.83,6.2,SW,12.7,-,N/A,,Partly Cloudy,230,2012-10-28 23:00:00
8:00 PM,84,77,74,29.86,22,WSW,10.4,,,,,250,2012-10-29 00:00:00
8:00 PM,84.2,77.0,79,29.86,6.2,SW,10.4,-,N/A,,Scattered Clouds,230,2012-10-29 00:00:00
9:00 PM,84.2,77.0,79,29.86,6.2,SW,8.1,-,N/A,,Scattered Clouds,230,2012-10-29 01:00:00
10:00 PM,84.2,77.0,79,29.86,6.2,SW,9.2,-,N/A,,Partly Cloudy,220,2012-10-29 02:00:00
11:00 PM,84,78,76,29.87,22,SSW,11.5,,,,Scattered Clouds,210,2012-10-29 03:00:00
11:00 PM,84.2,77.0,79,29.86,6.2,SSW,11.5,-,N/A,,Partly Cloudy,210,2012-10-29 03:00:00